loading
|
Showing default

LES 5, 2866

Orbit data source: Space-Track

LES 5, 2866 is a payload satellite owned by SAMSO (US) that was launched on Sat, 01 Jul 1967 UTC via a TITAN IIIC launch vehicle from the Air Force Eastern Test Range (AFETR). Payloads include a variety of satellites, spacecraft, and rockets equipped with specific instruments for various scientific and technological missions. These include communications satellites like Starlink; space stations such as the ISS; scientific satellites like the Hubble; Earth observation satellites from companies like Planet Labs, Umbra, and HawkEye 360; GPS; miniature CubeSats for education and research; and military/defense satellites.

Next visibility unknown
Next conjunction unknown
Loading greatness...
LES 5 details
Identifier
2866, 1967-066E
Orbit
Active
Last TLE update16 hours ago
Origin
Flag of USSAMSO (US)
ManufacturerMIT-LL
MissionPartially operational Defense Communications
Bus & MotorLES, Unknown motor
Mass102 kg wet, 102 kg dry
Launch date (UTC)
1967-07-01 (57 years ago)
Launch vehicle
TITAN IIIC
Launch site
Air Force Eastern Test Range (AFETR)
Object type
Payload
Rocket body
Debris
Shape & HBRCyl, 1.7 m
Radar Cross Section2.168 m², Large (>1 m²)

Expand to show TLE details & history

TLE from 16 hours ago
0 LES 5
1 02866U 67066E   24285.39196219 -.00000085  00000-0  00000-0 0  9992
2 02866   1.2674 125.4826 0054420 168.9334 163.7254  1.09425718124317
Epoch: 2024-10-11T09:24Z
Definitive object data (Epoch: 2024-10-11T09:24:25.533Z)
Latitude-0.59637°
Longitude-63.2773°
Altitude33,607.602 km
Speed3.149 km/s
True Right ascension06h 33m 10s
True Declination0° 35' 45"
Sunlit
Object was in daylight at TLE epoch
Predictive object data (real-time)
Latitude-1.00161°
Longitude-163.37045°
Altitude33,304.123 km
Speed3.173 km/s
Apparent Right ascension00h 19m 32s
Apparent Declination-7° 11' 12"
Sunlit
Object is in daylight
Predictive observer data (real-time)
Local Sidereal Time19:37:05
Azimuth108.177° ESE
Elevation9.924°
Doppler factor1
Orbital elements
Apogee33,618.635 km
Perigee33,185.666 km
Semi-major axis39,780.287 km
Eccentricity0.005442
Inclination1.2674°
RAAN125.4826°
Arg. of periapsis168.9334°
True anomaly163.89903°
Mean anomaly163.7254°
Eccentric anomaly163.81233°
Mean motion0.27355 °/min
BSTARUnknown
Period1316.02 mins
No data available

LES 5 Visibility forecast

Observer location: 39.9160978°, -105.1181434

LES 5 is not visible in the next 10 days
Span
Click to sort rows by Start time (UTC) header in descending order
Start Az.
Max El. time (UTC)
Max El. Az.
Max El.
End time (UTC)
End Az.